Hourly Data Report for October 26, 2016

All times are specified in Local Standard Time (LST). Add 1 hour to adjust for Daylight Saving Time where and when it is observed.

CHARLOTTETOWN A
PRINCE EDWARD ISLAND

46°17'21.000" N
63°07'09.000" W
48.50 m
8300301
71706
YYG

Download Data

Hourly Data (October 2016)
Hourly Data Report for October 26, 2016
Temp Definition
°C
Dew Point Temp Definition
°C
Rel Hum Definition
%
Wind Dir Definition
10's deg

Wind Spd Definition
km/h
Visibility Definition
km
Stn Press Definition
kPa
Hmdx Definition


Wind Chill Definition


Weather Definition


TIME
00:00 Legend Double Dagger 2.6 1.9 95 28 4 24.1 100.78     LegendNANA
01:00 Legend Double Dagger 2.8 2.1 95 25 7 24.1 100.82     LegendNANA
02:00 Legend Double Dagger 1.3 0.6 95 26 5 24.1 100.85     Clear
03:00 Legend Double Dagger 2.6 2.0 96 25 7 24.1 100.87     LegendNANA
04:00 Legend Double Dagger 3.6 3.0 96 28 8 24.1 100.91     LegendNANA
05:00 Legend Double Dagger 4.2 3.5 95 30 8 24.1 100.96     Mostly Cloudy
06:00 Legend Double Dagger 4.5 3.6 94 31 6 24.1 101.02     LegendNANA
07:00 Legend Double Dagger 4.1 3.4 95 34 7 24.1 101.10     LegendNANA
08:00 Legend Double Dagger 6.2 5.5 95 3 10 24.1 101.18     Mostly Cloudy
09:00 Legend Double Dagger 6.9 5.2 89 7 11 24.1 101.24     LegendNANA
10:00 Legend Double Dagger 8.3 4.2 75 7 11 24.1 101.29     LegendNANA
11:00 Legend Double Dagger 8.4 3.7 72 5 15 24.1 101.32     Mostly Cloudy
12:00 Legend Double Dagger 6.3 4.3 87 36 14 24.1 101.37     Rain Showers
13:00 Legend Double Dagger 7.1 5.3 88 35 11 24.1 101.37     LegendNANA
14:00 Legend Double Dagger 8.0 4.4 78 4 26 24.1 101.40     Mostly Cloudy
15:00 Legend Double Dagger 7.3 3.6 77 4 28 24.1 101.48     LegendNANA
16:00 Legend Double Dagger 6.5 5.0 90 3 27 24.1 101.55     Rain Showers
17:00 Legend Double Dagger 5.7 4.0 89 4 30 24.1 101.62     Rain Showers
18:00 Legend Double Dagger 5.8 4.3 90 3 21 16.1 101.73     Rain Showers
19:00 Legend Double Dagger 5.5 3.8 89 4 22 16.1 101.78     Rain Showers
20:00 Legend Double Dagger 5.1 3.4 89 3 27 16.1 101.85     Rain Showers
21:00 Legend Double Dagger 5.0 3.0 87 2 21 19.3 101.93     Rain Showers
22:00 Legend Double Dagger 4.7 2.4 85 3 26 24.1 101.95     Rain Showers
23:00 Legend Double Dagger 4.5 1.7 82 2 23 24.1 101.98     Cloudy

Notes on Data Quality.

Legend

  • E = Estimated
  • M = Missing
  • NA = Not Available
  • ‡ = Partner data that is not subject to review by the National Climate Archives
Date modified: